Weather History for Saginaw Browne, MI

Change the Weather History Date:

Wednesday, February 19, 2014

  Actual Average (KMBS) Record (KMBS)
Temperature  
Mean Temperature 34 °F 25 °F  
Max Temperature 41 °F 33 °F 45 °F (1997)
Min Temperature 28 °F 18 °F 3 °F (2006)
Degree Days  
Heating Degree Days 30    
Month to date heating degree days  
Since 1 July heating degree days  
Cooling Degree Days 0    
Month to date cooling degree days  
Year to date cooling degree days  
Moisture  
Dew Point 27 °F    
Average Humidity 75    
Maximum Humidity 93    
Minimum Humidity 57    
Precipitation  
Precipitation 0.00 in 0.06 in 0.10 in (1998)
Month to date precipitation 0.98  
Year to date precipitation 2.69  
Snow  
Snow 0.00 in - - ()
Month to date snowfall  
Since 1 July snowfall  
Snow Depth -    
Sea Level Pressure  
Sea Level Pressure 29.77 in    
Wind  
Wind Speed 9 mph (WSW)    
Max Wind Speed 15 mph    
Max Gust Speed 21 mph    
Visibility 9 miles    
Events Snow    
T = Trace of Precipitation, MM = Missing Value Source: NWS Daily Summary

Daily Weather History Graph

Daily Weather History Graph

Search for Another Location

Airport:

Trip Planner

Search our weather history database for the weather conditions in past years. The results will help you decide how hot, cold, wet, or windy it might be!

Date:

Astronomy

Feb. 19, 2014 Rise Set
Actual Time 7:27 AM EST 6:11 PM EST
Civil Twilight 6:58 AM EST 6:40 PM EST
Nautical Twilight 6:25 AM EST 7:13 PM EST
Astronomical Twilight 5:52 AM EST 7:46 PM EST
Moon 11:13 PM EST 9:24 AM EST
Length of Visible Light 11h 41m
Length of Day
10h 43m
Waning Gibbous, 80% of the Moon is Illuminated
Feb 19
Waning Gibbous
Feb 22
Last Quarter
Mar 1
New
Mar 8
First Quarter
Mar 16
Full

Hourly Weather History & Observations

Time (EST) Temp. Windchill Dew Point Humidity Pressure Visibility Wind Dir Wind Speed Gust Speed Precip Events Conditions
12:14 AM 37.4 °F 30.3 °F 28.4 °F 70% 29.60 in 10.0 mi SSW 10.4 mph - N/A   Clear
12:35 AM 35.6 °F 28.6 °F 28.4 °F 75% 29.59 in 10.0 mi SSW 9.2 mph - N/A   Clear
12:55 AM 33.8 °F 26.4 °F 26.6 °F 75% 29.59 in 10.0 mi SSW 9.2 mph - N/A   Clear
1:14 AM 32.0 °F 27.5 °F 26.6 °F 80% 29.59 in 10.0 mi SW 4.6 mph - N/A   Clear
1:35 AM 32.0 °F 24.8 °F 26.6 °F 80% 29.59 in 10.0 mi SW 8.1 mph - N/A   Clear
1:55 AM 33.8 °F 27.7 °F 26.6 °F 75% 29.58 in 10.0 mi SW 6.9 mph - N/A   Clear
2:15 AM 32.0 °F 25.6 °F 24.8 °F 75% 29.58 in 10.0 mi SW 6.9 mph - N/A   Clear
2:35 AM 32.0 °F 25.6 °F 26.6 °F 80% 29.58 in 10.0 mi SSW 6.9 mph - N/A   Clear
2:54 AM 32.0 °F 25.6 °F 24.8 °F 75% 29.58 in 10.0 mi SW 6.9 mph - N/A   Clear
3:15 AM 32.0 °F 25.6 °F 26.6 °F 80% 29.58 in 10.0 mi SW 6.9 mph - N/A   Clear
3:35 AM 32.0 °F 26.4 °F 24.8 °F 75% 29.58 in 10.0 mi SW 5.8 mph - N/A   Clear
3:54 AM 32.0 °F 26.4 °F 26.6 °F 80% 29.58 in 10.0 mi WSW 5.8 mph - N/A   Clear
4:15 AM 32.0 °F 25.6 °F 24.8 °F 75% 29.58 in 10.0 mi WSW 6.9 mph - N/A   Clear
4:35 AM 30.2 °F 23.4 °F 24.8 °F 80% 29.58 in 10.0 mi WSW 6.9 mph - N/A   Clear
4:54 AM 30.2 °F 24.3 °F 24.8 °F 80% 29.58 in 10.0 mi WSW 5.8 mph - N/A   Clear
5:15 AM 30.2 °F 23.4 °F 24.8 °F 80% 29.59 in 10.0 mi West 6.9 mph - N/A   Clear
5:35 AM 30.2 °F 23.4 °F 24.8 °F 80% 29.58 in 10.0 mi WSW 6.9 mph - N/A   Clear
5:55 AM 28.4 °F 21.2 °F 23.0 °F 80% 29.59 in 10.0 mi West 6.9 mph - N/A   Clear
6:15 AM 28.4 °F 22.2 °F 23.0 °F 80% 29.58 in 10.0 mi WNW 5.8 mph - N/A   Clear
6:35 AM 28.4 °F 23.3 °F 26.6 °F 93% 29.59 in 10.0 mi WSW 4.6 mph - N/A   Clear
6:55 AM 28.4 °F 20.4 °F 26.6 °F 93% 29.59 in 10.0 mi West 8.1 mph - N/A   Mostly Cloudy
7:15 AM 30.2 °F 24.3 °F 26.6 °F 86% 29.60 in 10.0 mi NW 5.8 mph - N/A   Overcast
7:35 AM 30.2 °F 25.4 °F 28.4 °F 93% 29.61 in 10.0 mi West 4.6 mph - N/A   Overcast
7:55 AM 32.0 °F 24.8 °F 28.4 °F 87% 29.63 in 10.0 mi WNW 8.1 mph - N/A   Overcast
8:15 AM 32.0 °F 26.4 °F 28.4 °F 87% 29.64 in 10.0 mi WNW 5.8 mph - N/A   Overcast
8:35 AM 32.0 °F 24.2 °F 28.4 °F 87% 29.67 in 10.0 mi West 9.2 mph - N/A   Overcast
8:55 AM 32.0 °F 23.6 °F 28.4 °F 87% 29.70 in 7.0 mi West 10.4 mph - N/A   Overcast
9:15 AM 32.0 °F 21.6 °F 30.2 °F 93% 29.71 in 1.5 mi WNW 15.0 mph - N/A Snow Light Snow
9:35 AM 32.0 °F 23.0 °F 30.2 °F 93% 29.72 in 1.2 mi WNW 11.5 mph - N/A Snow Light Snow
9:55 AM 32.0 °F 25.6 °F 30.2 °F 93% 29.72 in 4.0 mi West 6.9 mph - N/A   Overcast
10:15 AM 33.8 °F 25.3 °F 30.2 °F 87% 29.73 in 5.0 mi West 11.5 mph - N/A   Mostly Cloudy
10:34 AM 35.6 °F 29.9 °F 30.2 °F 81% 29.74 in 7.0 mi West 6.9 mph - N/A   Mostly Cloudy
10:55 AM 35.6 °F 27.1 °F 30.2 °F 81% 29.75 in 7.0 mi West 12.7 mph - N/A   Mostly Cloudy
11:15 AM 35.6 °F 27.1 °F 28.4 °F 75% 29.75 in 7.0 mi West 12.7 mph - N/A   Mostly Cloudy
11:34 AM 35.6 °F 27.5 °F 30.2 °F 81% 29.76 in 7.0 mi West 11.5 mph - N/A   Scattered Clouds
11:55 AM 37.4 °F 30.3 °F 30.2 °F 75% 29.76 in 7.0 mi West 10.4 mph - N/A   Clear
12:15 PM 37.4 °F 29.8 °F 30.2 °F 75% 29.76 in 7.0 mi West 11.5 mph - N/A   Clear
12:34 PM 37.4 °F 30.3 °F 30.2 °F 75% 29.77 in 7.0 mi WSW 10.4 mph - N/A   Clear
12:55 PM 39.2 °F 30.8 °F 28.4 °F 65% 29.77 in 10.0 mi West 15.0 mph - N/A   Clear
1:15 PM 39.2 °F 30.8 °F 28.4 °F 65% 29.78 in 7.0 mi West 15.0 mph - N/A   Clear
1:34 PM 39.2 °F 30.8 °F 28.4 °F 65% 29.79 in 10.0 mi West 15.0 mph - N/A   Clear
1:55 PM 41.0 °F 33.1 °F 28.4 °F 61% 29.79 in 10.0 mi WSW 15.0 mph - N/A   Clear
2:15 PM 41.0 °F 33.9 °F 28.4 °F 61% 29.81 in 10.0 mi WSW 12.7 mph - N/A   Clear
2:34 PM 41.0 °F 33.5 °F 28.4 °F 61% 29.81 in 10.0 mi WSW 13.8 mph - N/A   Clear
2:55 PM 41.0 °F 33.9 °F 28.4 °F 61% 29.82 in 10.0 mi WSW 12.7 mph 20.7 mph N/A   Clear
3:15 PM 41.0 °F 34.7 °F 28.4 °F 61% 29.83 in 10.0 mi WSW 10.4 mph - N/A   Clear
3:34 PM 41.0 °F 33.9 °F 28.4 °F 61% 29.83 in 10.0 mi WSW 12.7 mph - N/A   Clear
3:55 PM 41.0 °F 34.7 °F 28.4 °F 61% 29.84 in 10.0 mi WSW 10.4 mph - N/A   Clear
4:15 PM 41.0 °F 33.9 °F 28.4 °F 61% 29.85 in 10.0 mi WSW 12.7 mph - N/A   Clear
4:34 PM 41.0 °F 34.7 °F 28.4 °F 61% 29.86 in 10.0 mi WSW 10.4 mph 19.6 mph N/A   Clear
4:55 PM 41.0 °F 34.7 °F 26.6 °F 57% 29.87 in 10.0 mi WSW 10.4 mph - N/A   Clear
5:15 PM 41.0 °F 33.1 °F 26.6 °F 57% 29.89 in 10.0 mi WSW 15.0 mph 18.4 mph N/A   Clear
5:34 PM 41.0 °F 35.2 °F 26.6 °F 57% 29.90 in 10.0 mi SW 9.2 mph 18.4 mph N/A   Clear
5:55 PM 37.4 °F 29.3 °F 30.2 °F 75% 29.92 in 10.0 mi SW 12.7 mph - N/A   Clear
6:15 PM 35.6 °F 27.5 °F 30.2 °F 81% 29.93 in 10.0 mi SW 11.5 mph - N/A   Clear
6:35 PM 35.6 °F 27.1 °F 28.4 °F 75% 29.94 in 10.0 mi SW 12.7 mph - N/A   Clear
6:55 PM 35.6 °F 27.1 °F 28.4 °F 75% 29.95 in 10.0 mi SW 12.7 mph - N/A   Clear
7:15 PM 35.6 °F 27.1 °F 28.4 °F 75% 29.96 in 10.0 mi SW 12.7 mph - N/A   Clear
7:35 PM 35.6 °F 28.0 °F 28.4 °F 75% 29.97 in 10.0 mi SW 10.4 mph - N/A   Clear
7:55 PM 35.6 °F 28.0 °F 26.6 °F 70% 29.97 in 10.0 mi SW 10.4 mph - N/A   Clear
8:15 PM 33.8 °F 25.8 °F 26.6 °F 75% 29.98 in 10.0 mi SW 10.4 mph - N/A   Clear
8:35 PM 33.8 °F 25.8 °F 26.6 °F 75% 29.98 in 10.0 mi SW 10.4 mph - N/A   Clear
8:55 PM 33.8 °F 25.8 °F 24.8 °F 70% 29.99 in 10.0 mi WSW 10.4 mph - N/A   Clear
9:15 PM 33.8 °F 27.0 °F 23.0 °F 65% 29.99 in 10.0 mi WSW 8.1 mph - N/A   Clear
9:35 PM 32.0 °F 25.6 °F 23.0 °F 69% 29.99 in 10.0 mi SW 6.9 mph - N/A   Clear
9:55 PM 32.0 °F 25.6 °F 23.0 °F 69% 29.99 in 10.0 mi SW 6.9 mph - N/A   Clear
10:15 PM 32.0 °F 23.6 °F 24.8 °F 75% 29.99 in 10.0 mi SSW 10.4 mph - N/A   Clear
10:35 PM 30.2 °F 21.9 °F 24.8 °F 80% 29.99 in 10.0 mi SSW 9.2 mph - N/A   Clear
10:55 PM 32.0 °F 24.2 °F 26.6 °F 80% 29.99 in 10.0 mi SSW 9.2 mph - N/A   Clear
11:15 PM 32.0 °F 24.8 °F 24.8 °F 75% 29.99 in 10.0 mi SSW 8.1 mph - N/A   Clear
11:35 PM 32.0 °F 24.2 °F 24.8 °F 75% 29.99 in 10.0 mi SSW 9.2 mph - N/A   Clear
11:55 PM 32.0 °F 24.2 °F 24.8 °F 75% 29.99 in 10.0 mi South 9.2 mph - N/A   Clear